Location: Unspecified
(0.0000°N, 0.0000°E)
Time: 21:45:04
(UTC+00:00)

Altair - Visible Passes

Search period start: 23 September 2017 00:00
Search period end: 03 October 2017 00:00
Orbit: 1501 x 1683 km, 47.2° (Epoch: 22 September)

Date Brightness Start Highest point End Pass type
(mag) Time Alt. Az. Time Alt. Az. Time Alt. Az.
23 Sep 9.3 20:45:56 10° S 20:47:24 15° S 20:47:24 15° S visible
24 Sep 9.0 20:21:07 10° S 20:24:00 19° S 20:24:00 19° S visible
25 Sep 8.8 19:56:22 10° S 20:00:40 21° SSE 20:00:40 21° SSE visible
26 Sep 8.7 19:31:40 10° S 19:37:24 22° SE 19:37:24 22° SE visible
26 Sep 9.4 21:33:41 10° SW 21:35:28 17° SW 21:35:28 17° SW visible
27 Sep 8.7 19:07:04 10° S 19:13:27 19° SE 19:14:13 19° SE visible
27 Sep 8.9 21:08:30 10° SW 21:12:17 28° SW 21:12:17 28° SW visible
28 Sep 8.8 18:42:34 10° S 18:48:13 17° SE 18:51:06 15° ESE visible
28 Sep 8.2 20:43:22 10° SW 20:49:11 43° SW 20:49:11 43° SW visible
29 Sep 9.0 18:18:17 10° SSE 18:22:58 14° SE 18:27:41 10° ESE visible
29 Sep 7.6 20:18:15 10° SW 20:26:09 64° SSW 20:26:09 64° SSW visible
30 Sep 7.4 19:53:11 10° SSW 20:02:44 71° SE 20:03:12 70° ESE visible
30 Sep 9.6 22:00:03 10° W 22:01:17 13° W 22:01:17 13° W visible
01 Oct 7.5 19:28:08 10° SSW 19:37:34 64° SE 19:40:19 48° ENE visible
01 Oct 9.2 21:34:25 10° WSW 21:38:24 22° W 21:38:24 22° W visible
02 Oct 7.6 19:03:08 10° SSW 19:12:25 57° SE 19:17:29 30° ENE visible
02 Oct 8.8 21:08:51 10° WSW 21:15:36 30° WNW 21:15:36 30° WNW visible
